Moab, UT

5:23 AM MDT on August 30, 2016 (GMT -0600)
Canyonlands

Weather History for KCNY - June, 2012

Change the Weather History Date:

Tuesday, June 19, 2012

  Actual Average Record
Temperature  
Mean Temperature 79 °F 74 °F  
Max Temperature 98 °F 91 °F 110 °F (1936)
Min Temperature 59 °F 57 °F 37 °F (1939)
Degree Days  
Heating Degree Days 0 0  
Month to date heating degree days 2 15  
Since 1 June heating degree days 2 15  
Since 1 July heating degree days 5099 5575  
Cooling Degree Days 14 9  
Month to date cooling degree days 188 131  
Year to date cooling degree days 272 195  
Since 1 June cooling degree days 188 131  
Growing Degree Days 30 (Base 50)    
Moisture  
Dew Point 10 °F    
Average Humidity 8    
Maximum Humidity 11    
Minimum Humidity 4    
Precipitation  
Precipitation 0.00 in 0.02 in 0.35 in (1949)
Month to date precipitation T 0.32  
Year to date precipitation 0.65 3.52  
Sea Level Pressure  
Sea Level Pressure 29.54 in    
Wind  
Wind Speed 9 mph (West)    
Max Wind Speed 24 mph    
Max Gust Speed 30 mph    
Visibility 10 miles    
Events      
T = Trace of Precipitation, MM = Missing Value Source: NWS Daily Summary

Daily Weather History Graph

Daily Weather History Graph

Search for Another Location

Airport or City:

Trip Planner

Search our weather history database for the weather conditions in past years. The results will help you decide how hot, cold, wet, or windy it might be!

Date:

Astronomy

Jun. 19, 2012 Rise Set
Actual Time 5:54 AM MDT 8:47 PM MDT
Civil Twilight 5:22 AM MDT 9:19 PM MDT
Nautical Twilight 4:41 AM MDT 9:59 PM MDT
Astronomical Twilight 3:55 AM MDT 10:45 PM MDT
Moon 6:01 AM MDT (6/19) 8:54 PM MDT (6/19)
Length of Visible Light 15h 56m
Length of Day
14h 52m
New Moon, 0% of the Moon is Illuminated
Jun 19
New Moon
Jun 26
First Quarter
Jul 3
Full
Jul 10
Last Quarter
Jul 18
New

Hourly Weather History & Observations

Time (MDT) Temp. Dew Point Humidity Pressure Visibility Wind Dir Wind Speed Gust Speed Precip Events Conditions
12:53 AM 82.0 °F 7.0 °F 6% 29.47 in 10.0 mi SW 13.8 mph - N/A   Clear
1:53 AM 77.0 °F 7.0 °F 7% 29.48 in 10.0 mi SSW 11.5 mph - N/A   Clear
2:53 AM 73.9 °F 6.1 °F 7% 29.49 in 10.0 mi ENE 5.8 mph - N/A   Clear
3:53 AM 69.1 °F 5.0 °F 8% 29.52 in 10.0 mi NNW 3.5 mph - N/A   Clear
4:53 AM 66.0 °F 6.1 °F 9% 29.53 in 10.0 mi Calm Calm - N/A   Clear
5:53 AM 63.0 °F 5.0 °F 10% 29.55 in 10.0 mi WSW 3.5 mph - N/A   Clear
6:53 AM 63.0 °F 5.0 °F 10% 29.57 in 10.0 mi Calm Calm - N/A   Clear
7:53 AM 73.0 °F 8.1 °F 8% 29.57 in 10.0 mi Calm Calm - N/A   Clear
8:53 AM 81.0 °F 12.0 °F 7% 29.56 in 10.0 mi ESE 4.6 mph - N/A   Clear
10:53 AM 89.1 °F 12.0 °F 6% 29.56 in 10.0 mi WSW 15.0 mph 19.6 mph N/A   Clear
11:53 AM 90.0 °F 12.0 °F 6% 29.55 in 10.0 mi Variable 3.5 mph - N/A   Clear
12:53 PM 91.9 °F 12.9 °F 5% 29.54 in 10.0 mi WNW 11.5 mph 19.6 mph N/A   Clear
1:53 PM 93.9 °F 12.0 °F 5% 29.52 in 10.0 mi SW 5.8 mph 21.9 mph N/A   Clear
2:53 PM 95.0 °F 10.9 °F 4% 29.50 in 10.0 mi Variable 6.9 mph 21.9 mph N/A   Clear
3:53 PM 98.1 °F 10.9 °F 4% 29.48 in 10.0 mi West 20.7 mph 28.8 mph N/A   Clear
4:32 PM 96.8 °F 12.2 °F 4% 29.69 in 10.0 mi WSW 15.0 mph - N/A   Clear
4:53 PM 96.8 °F 12.2 °F 4% 29.69 in 10.0 mi WSW 11.5 mph 25.3 mph N/A   Clear
5:53 PM 97.0 °F 12.0 °F 4% 29.46 in 10.0 mi WSW 13.8 mph 26.5 mph N/A   Clear
6:53 PM 93.9 °F 14.0 °F 5% 29.47 in 10.0 mi NW 23.0 mph 29.9 mph N/A   Clear
7:53 PM 90.0 °F 15.1 °F 6% 29.47 in 10.0 mi NW 21.9 mph 27.6 mph N/A   Clear
8:53 PM 82.9 °F 12.9 °F 7% 29.49 in 10.0 mi NW 8.1 mph - N/A   Clear
9:53 PM 77.0 °F 12.2 °F 9% 29.72 in 10.0 mi NW 9.2 mph - N/A   Clear
10:53 PM 71.1 °F 12.0 °F 10% 29.55 in 10.0 mi NW 9.2 mph - N/A   Clear
11:53 PM 69.1 °F 12.0 °F 11% 29.58 in 10.0 mi NW 6.9 mph - N/A   Clear